Location: *
(37.9500°N, 27.3666°E)
Time: 13:58:30
(UTC+00:00)

CZ-4B R/B - Pass Details

Date: 24 October 2021
Orbit: 808 x 882 km, 99.1° (Epoch: 02 December)

Event Time Altitude Azimuth Distance (km) Brightness Sun altitude
Rises 16:41:41 0° 177° (S) 3,455 6.4 -16.6°
Reaches altitude 10° 16:44:07 10° 181° (S) 2,525 5.7 -17.0°
Maximum altitude 16:49:38 56° 259° (W) 1,044 4.0 -18.1°
Drops below altitude 10° 16:55:12 10° 337° (NNW) 2,545 6.0 -19.2°
Sets 16:57:39 0° 342° (NNW) 3,484 6.6 -19.7°
